Find Starlink 3658

NORAD ID: 52107 Int'l Des: 2022-029 Owner: SPXS Country: US Constellation: starlink operational
LEOCIRCULAR

当前视图

正在加载3D地球...

About Starlink 3658

Starlink 3658 (NORAD 52107) is a starlink constellation satellite (v1.5) launched Mar 19, 2022 by SPXS of US. It operates in LEO, CIRCULAR orbit with a mass of 297.00 kg.

即将过境

Passes for default location (London). Set your location on the main map for personalized predictions.

高度历史

Loading altitude history...

两行轨道根数

1 52107U 22029V 26263.58636155 .00001018 00000-0 41267-4 0 9992
2 52107 53.1583 268.9672 0001086 92.6631 267.4496 15.34386364250417
Epoch: Sep 20, 2026 • Age: 15 hours

当前状态

高度 469.5 km
远地点 / 近地点 N/A
速度 7.63 km/s
星下点 -22.63°S, 28.35°E
发射日期 Mar 19, 2022
运行时间 4.5 years
类型 internet

技术详情

分类 Payload
质量 297.00 kg
干质量 275.00 kg
长度 0.20 m
跨度 9.00 m
形状 ? Box + pan
制造商 SPXS
平台类型 Starlink
阶段状态 In Orbit
所有者/国家 SPXS/US

Most Searched